Starlink 11285

operational
NORAD ID: 61578 Int'l Des: 2024-187 Owner: SPXS Country: US Constellation: starlink
LEOCIRCULAR

About Starlink 11285

Description loading...

Live Position

Loading 3D Globe...

Upcoming Passes

Altitude History

Altitude vs Time

uPlot chart will show altitude changes over time

Two-Line Element Set

1 61578U 24187E 25259.68499341 -.00002785 00000-0 -18153-4 0 9992
2 61578 53.1579 73.8339 0000672 50.9031 309.2047 15.69697170 53379
Epoch: Sep 16, 2025 • Age: 34 hours

Current Status

Altitude 363.8 km
Velocity 7.70 km/s
Sub-Earth Point 44.00°N, 80.95°E
Launch Date Oct 18, 2024
Age 0.9 years
Type internet

Technical Details

Classification Payload
Mass 960.00 kg
Dry Mass 910.00 kg
Total Mass 960.00 kg
Length 0.30 m
Diameter 4.10 m
Span 29.00 m
Shape Box + pan
Manufacturer SPXS
Bus Type Starlink V2MD
Phase Status In Orbit
Owner/State SPXS/US

Large Constellations

Loading constellations...